Flag for Philippines Weather past 2 weeks in Makati, Philippines

Now
84 °F

Broken clouds.


Feels Like: 90 °F
Forecast: 74 / 85 °F
Wind: 7 mph from Southeast

Location: National Airport

Current Time: Jan 29, 2015 at 1:13:27 PM

Latest Report: Jan 29, 2015 at 12:00 PM


Visibility: N/A

Pressure: 29.92 "Hg

Humidity: 66%

Dew point: 72 °F

Location of MakatiLocation

Historic Weather in Makati — Graph

°F

Makati temperature yesterday

Maximum temperature yesterday: 88 °F (at 4:00 PM)
Minimum temperature yesterday: 73 °F (at 7:00 AM)
Average temperature yesterday: 80 °F

Past Weeks' High & Low Weather Summary

 TemperatureHumidityPressure
High88 °F (Jan 28, 4:00 PM)100% (Jan 18, 5:00 PM)30.07 "Hg (Jan 18, 5:00 PM)
Low68 °F (Jan 19, 6:00 AM)22% (Jan 22, 11:00 PM)29.80 "Hg (Jan 18, 4:00 PM)
Average78 °F74%29.93 "Hg
* Reported Jan 14 12:00 Noon — Jan 29 12:00 Noon, Makati, Weather by CustomWeather, © 2014

Note: Actual official high and low records may vary slightly from our data, if they occured in-between our weather recording intervals... More about our weather records

Advertising

Makati weather history for previous 24 hours

 ConditionsComfort  
Time TempWeatherWind HumidityBarometerVisibility
12:00 PM
Jan 29
84 °FBroken clouds.7 mph66%29.92 "HgN/A
11:00 AM82 °FScattered clouds.6 mph70%29.95 "HgN/A
10:00 AM84 °FPassing clouds.6 mph66%29.95 "HgN/A
9:00 AM81 °FPassing clouds.2 mph79%29.95 "HgN/A
8:00 AM77 °FPassing clouds.2 mph94%29.95 "HgN/A
7:00 AM75 °FPassing clouds.1 mph94%29.92 "HgN/A
6:00 AM75 °FPassing clouds.2 mph94%29.89 "HgN/A
5:00 AM75 °FPassing clouds.2 mph94%29.89 "HgN/A
4:00 AM75 °FPassing clouds.2 mph94%29.86 "HgN/A
3:00 AM77 °FPassing clouds.No wind89%29.86 "HgN/A
2:00 AM77 °FPassing clouds.3 mph89%29.89 "HgN/A
1:00 AM77 °FPassing clouds.3 mph89%29.89 "HgN/A
12:00 AM79 °FPassing clouds.6 mph84%29.92 "HgN/A
11:00 PM
Jan 28
79 °FPassing clouds.6 mph84%29.92 "HgN/A
10:00 PM79 °FPartly cloudy.6 mph84%29.92 "HgN/A
9:00 PM81 °FPartly cloudy.7 mph74%29.92 "HgN/A
8:00 PM81 °FPartly cloudy.9 mph74%N/AN/A
7:00 PM81 °FPassing clouds.8 mph79%29.86 "HgN/A
6:00 PM82 °FPartly cloudy.69 mph70%29.86 "HgN/A
5:00 PM84 °FBroken clouds.7 mph66%29.83 "HgN/A
4:00 PM88 °FScattered clouds.6 mph55%29.83 "HgN/A
3:00 PM86 °FBroken clouds.5 mph59%29.83 "HgN/A
2:00 PM84 °FPassing clouds.8 mph62%29.83 "HgN/A
1:00 PM84 °FPassing clouds.7 mph62%29.86 "HgN/A
Weather by CustomWeather, © 2014

See weather overviewHow to use our weather pages